Overview Statistics Trail Chart Weather Telemetry Raw packets
 

This is the latest recevied weather packets stored in our database for station/object W0WC. If no packets are shown the sender has not sent any weather packets the latest 10 day(s).

<< 65 66 67 68 69 70 71 >>
Time Temp. Humidity Pressure Rain* Wind** Luminosity Snow
1788229156 30° C 44% 1016 hPa 0 mm - 0 W/m² -
1788228852 30.56° C 44% 1016 hPa 0 mm - 0 W/m² -
1788228548 30.56° C 44% 1015.8 hPa 0 mm - 0 W/m² -
1788228243 30.56° C 43% 1015.8 hPa 0 mm - 0 W/m² -
1788227941 30.56° C 43% 1015.9 hPa 0 mm - 0 W/m² -
1788227638 31.11° C 43% 1015.8 hPa 0 mm - 0 W/m² -
1788227337 31.11° C 42% 1015.7 hPa 0 mm - 0 W/m² -
1788227034 31.11° C 42% 1015.6 hPa 0 mm - 0 W/m² -
1788226729 31.11° C 42% 1015.6 hPa 0 mm - 0 W/m² -
1788226425 31.67° C 41% 1015.5 hPa 0 mm - 0 W/m² -
1788226120 31.67° C 40% 1015.4 hPa 0 mm - 0 W/m² -
1788225815 32.22° C 40% 1015.4 hPa 0 mm - 0 W/m² -
1788225511 32.22° C 39% 1015.4 hPa 0 mm - 0 W/m² -
1788225207 32.78° C 38% 1015.2 hPa 0 mm - 0 W/m² -
1788224905 33.33° C 38% 1015.5 hPa 0 mm - 0 W/m² -
1788224600 33.33° C 37% 1015.2 hPa 0 mm - 0 W/m² -
1788224299 33.89° C 36% 1015.3 hPa 0 mm - 1 W/m² -
1788223994 33.89° C 36% 1015.1 hPa 0 mm - 2 W/m² -
1788223694 34.44° C 35% 1015.2 hPa 0 mm - 4 W/m² -
1788223389 35° C 34% 1015 hPa 0 mm - 6 W/m² -
1788223083 35° C 33% 1015.1 hPa 0 mm - 9 W/m² -
1788222778 35.56° C 32% 1015.3 hPa 0 mm - 13 W/m² -
1788222476 35.56° C 32% 1015 hPa 0 mm - 17 W/m² -
1788222172 36.11° C 32% 1015.2 hPa 0 mm - 22 W/m² -
1788221867 36.11° C 31% 1015.2 hPa 0 mm - 26 W/m² -

* Rain latest hour (hover to see other rain measurements)
** Current wind speed in m/s (hover to see current wind gust speed)